Tracking 23611 objects as of 17-Sep-2021
HD Live streaming from Space Station
objects crossing your sky now
Track INSPIRATION-4

DELTA 1 DEB

Track DELTA 1 DEB now!
10-day predictions


NORAD ID: 37639
Int'l Code: 1978-026JA
Perigee: 873.4 km
Apogee: 1,046.5 km
Inclination: 98.8 °
Period: 104.1 minutes
Semi major axis: 7330 km
RCS: 0.0118 m2 (small)
Launch date: March 5, 1978
Source: United States (US)
Launch site: AIR FORCE WESTERN TEST RANGE (AFWTR)

Note: This is SATELLITE DEBRIS
aabbcc
Your satellite tracking list
Your tracking list is empty




NASA's NSSDC Master Catalog

Two Line Element Set (TLE):
1 37639U 78026JA  21260.42163677  .00000055  00000-0  81569-4 0  9991
2 37639  98.7628 244.1031 0118119  41.8426 112.0003 13.83127495470642
Source of the keplerian elements: AFSPC